[[{"header":{"parameterUnit":"m.s-1","parameterCategory":2,"la1":30.2991,"la2":30.254,"lo1":-89.0895,"lo2":-89.0444,"dy":0.0017,"dx":0.0017,"nx":28,"ny":28,"refTime":"2023-08-14T09:00:00:Z","depth":"0","parameterNumber":2,"parameterNumberName":"U-component_of_CURRENTS"},"data":[0,0,0,0,0,0,0,0,0,0,0,0,0,0,0,0,0,0,0,0,0,0,0,0,0,0,0,0,0,0,0,0,0,0,0,0,0,0,0,0,0,0,0,0,0,0,0,0,0,0,0,0,0,0,0,0,0,0,0.336,0.336,0,0.3466,0.3468,0.3469,0.3549,0.3549,0.355,0.355,0.3652,0.3654,0.3656,0,0,0,0,0,0,0,0,0,0,0,0,0,0.3108,0.3113,0.3359,0.3361,0.3362,0.3466,0.3468,0.3469,0.3549,0.3549,0.355,0.3551,0.3651,0.3654,0.3656,0,0,0,0,0,0,0,0,0,0,0,0,0,0.3219,0.3114,0.3359,0.3412,0.3418,0.3466,0.3468,0.347,0.3549,0.3549,0.355,0.3551,0.365,0.3653,0.3657,0.3663,0,0,0.3667,0.3669,0,0,0,0,0,0,0,0,0.3212,0.3228,0.3403,0.3408,0.3415,0.3493,0.3416,0.3533,0.3549,0.3502,0.355,0.3551,0.3596,0.3604,0.3626,0.3668,0.3673,0.3668,0.367,0.3671,0.3672,0,0,0,0,0,0,0,0.3205,0.3223,0.3404,0.3404,0.3411,0.339,0.3408,0.3438,0.3545,0.3506,0.3511,0.3519,0.3599,0.3623,0.3629,0.3674,0.3667,0.367,0.3673,0.3674,0.3828,0.383,0,0,0,0,0,0,0.3193,0.3217,0.3401,0.3407,0.331,0.3394,0.3414,0.3469,0.3545,0.3557,0.3518,0.3522,0.3617,0.3625,0.3633,0.3734,0.3671,0.3674,0.3676,0.3826,0.3828,0.383,0,0,0,0,0,0,0.3188,0.321,0.3397,0.3309,0.3331,0.3398,0.3459,0.3471,0.3506,0.3554,0.3566,0.3541,0.3617,0.3628,0.3713,0.3735,0.3676,0.3679,0.3823,0.3827,0.3829,0.3878,0,0,0,0,0,0,0.3181,0.3209,0.3246,0.331,0.3335,0.3443,0.3458,0.3472,0.3507,0.3514,0.3578,0.3588,0.3619,0.3708,0.3716,0.3738,0.3681,0.3821,0.3825,0.3828,0.3874,0.3882,0.389,0,0,0,0,0,0.3172,0.3243,0.3249,0.327,0.3387,0.3444,0.3456,0.3504,0.3507,0.3535,0.3601,0.3586,0.3737,0.3714,0.3722,0.3745,0.3819,0.3824,0.3828,0.387,0.3881,0.3889,0,0,0,0,0,0,0.3156,0.3259,0.3267,0.3366,0.3397,0.3457,0.3485,0.3504,0.3574,0.3584,0.3625,0.3641,0.3735,0.3729,0.3702,0.3802,0.3769,0.3776,0.3798,0.3808,0.3816,0.3829,0.3684,0,0,0,0,0,0.3163,0.3251,0.3304,0.3378,0.3389,0.3427,0.3454,0.3485,0.3547,0.3578,0.362,0.3674,0.3757,0.3774,0.3843,0.388,0.3927,0.3898,0.3906,0.3912,0.3931,0.4028,0.4047,0.3846,0.3846,0.3846,0,0,0.318,0.3241,0.3293,0.3379,0.3402,0.3433,0.3448,0.3496,0.3536,0.3576,0.3648,0.3719,0.3784,0.3866,0.3898,0.3858,0.4,0.3918,0.3923,0.3939,0.4035,0.4055,0.4072,0.3849,0.3848,0.3848,0,0,0.3222,0.3297,0.3355,0.3384,0.3424,0.3452,0.3461,0.3514,0.3554,0.363,0.3692,0.3785,0.3852,0.3928,0.397,0.4053,0.4065,0.4047,0.4067,0.4161,0.4178,0.4194,0.4303,0.4328,0.4017,0.4017,0.4017,0,0.3224,0.3305,0.3372,0.3404,0.3422,0.3454,0.3475,0.3529,0.361,0.3654,0.3659,0.3845,0.3894,0.4025,0.4065,0.4072,0.4128,0.4023,0.4172,0.4189,0.4204,0.4311,0.4338,0.402,0.402,0.402,0.4019,0,0.3283,0.3334,0.3362,0.3422,0.3456,0.3485,0.3539,0.3593,0.3631,0.3684,0.3825,0.3923,0.403,0.4054,0.409,0.4219,0.4228,0.4197,0.4146,0.4227,0.4335,0.4363,0.4024,0.4023,0.4022,0.4022,0,0,0.3301,0.3388,0.3386,0.339,0.346,0.3483,0.3568,0.3644,0.37,0.3797,0.3893,0.405,0.4102,0.4157,0.4211,0.428,0.445,0.4275,0.4278,0.4381,0.4679,0.4649,0.4676,0.4436,0.4441,0.4444,0.4719,0,0.3298,0.3343,0.3402,0.3426,0.3437,0.3507,0.3569,0.3657,0.3746,0.3854,0.3985,0.4096,0.4137,0.4191,0.429,0.4421,0.4521,0.438,0.4587,0.4594,0.4555,0.4706,0.4517,0.4742,0.4746,0.475,0.4754,0,0.3307,0.3333,0.3357,0.3403,0.3412,0.3447,0.3546,0.3617,0.3793,0.3872,0.4032,0.4125,0.4312,0.4297,0.4586,0.4492,0.4606,0.4686,0.4697,0.4671,0.4615,0.4658,0.4792,0.4562,0.4796,0.4792,0.4789,0,0.3244,0.329,0.3301,0.3319,0.3393,0.3429,0.3476,0.3622,0.3695,0.3895,0.3981,0.4198,0.4335,0.4502,0.4719,0.465,0.5021,0.4934,0.5028,0.5027,0.4911,0.4891,0.4842,0.5139,0.5139,0.5138,0.5137,0,0.322,0.322,0.3267,0.3275,0.3291,0.3363,0.3427,0.353,0.3686,0.38,0.3983,0.4132,0.439,0.4627,0.4772,0.5031,0.5084,0.5092,0.5111,0.4923,0.4903,0.4729,0.4638,0.5148,0.5146,0.5144,0.5142,0,0.317,0.32,0.3211,0.3258,0.327,0.3289,0.338,0.3447,0.3596,0.3769,0.3831,0.4135,0.4442,0.4709,0.5026,0.5113,0.5184,0.5396,0.5177,0.5164,0.4944,0.4865,0.4854,0.472,0.5509,0.551,0.5511,0,0.3159,0.3156,0.3182,0.3191,0.3216,0.3249,0.3288,0.3406,0.3498,0.3774,0.3868,0.4196,0.443,0.4912,0.5165,0.5456,0.5258,0.5393,0.5211,0.4955,0.4883,0.473,0.4604,0.5098,0.5095,0.5093,0.5091,0,0.3132,0.3137,0.3149,0.3158,0.3182,0.3198,0.3267,0.3302,0.3482,0.3615,0.3842,0.4021,0.4533,0.475,0.5151,0.531,0.5081,0.5355,0.5143,0.4623,0.4404,0.4273,0.4905,0.5073,0.5075,0.5076,0.5077,0.5078,0.3118,0.3109,0.3121,0.3129,0.3142,0.314,0.3122,0.3216,0.33,0.3474,0.3731,0.3942,0.4275,0.4808,0.4925,0.4958,0.502,0.4821,0.4779,0.4674,0.4422,0.503,0.5167,0.5169,0.5171,0.5173,0.5174,0,0.3093,0.3089,0.3093,0.3078,0.3049,0.3081,0.3103,0.3078,0.3122,0.3326,0.3502,0.3749,0.3962,0.4199,0.4426,0.4356,0.4221,0.4267,0.3952,0.388,0.4468,0.4315,0.4205,0.4205,0.4206,0.4206,0.4206,0.4206,0.3093,0.3074,0.3064,0.2993,0.2967,0.2893,0.287,0.2855,0.2933,0.3001,0.31,0.3302,0.3608,0.3828,0.3799,0.3767,0.3466,0.3449,0.3419,0.3733,0.3777,0.3818,0.3647,0.3399,0.3398,0.2669,0.2663,0.2658]},{"header":{"parameterUnit":"m.s-1","parameterCategory":2,"la1":30.2991,"la2":30.254,"lo1":-89.0895,"lo2":-89.0444,"dy":0.0017,"dx":0.0017,"nx":28,"ny":28,"refTime":"2023-08-14T09:00:00:Z","depth":"0","parameterNumber":3,"parameterNumberName":"V-component_of_CURRENTS"},"data":[0,0,0,0,0,0,0,0,0,0,0,0,0,0,0,0,0,0,0,0,0,0,0,0,0,0,0,0,0,0,0,0,0,0,0,0,0,0,0,0,0,0,0,0,0,0,0,0,0,0,0,0,0,0,0,0,0,0,0.0811,0.0811,0,0.0804,0.0804,0.0804,0.075,0.0749,0.0747,0.0746,0.0629,0.0627,0.0625,0,0,0,0,0,0,0,0,0,0,0,0,0,0.0697,0.07,0.0811,0.0811,0.081,0.0804,0.0804,0.0804,0.075,0.0749,0.0747,0.0745,0.063,0.0627,0.0625,0,0,0,0,0,0,0,0,0,0,0,0,0,0.0725,0.0701,0.0811,0.0783,0.078,0.0804,0.0804,0.0804,0.0751,0.0749,0.0747,0.0745,0.063,0.0628,0.0625,0.0649,0,0,0.0616,0.0615,0,0,0,0,0,0,0,0,0.0723,0.0729,0.0787,0.0785,0.0782,0.0776,0.0721,0.0747,0.0751,0.0762,0.0746,0.0744,0.0669,0.0663,0.0668,0.0644,0.0638,0.0616,0.0615,0.0613,0.0613,0,0,0,0,0,0,0,0.0722,0.0728,0.0808,0.0787,0.0784,0.0743,0.0746,0.0726,0.0725,0.0761,0.0757,0.0757,0.0667,0.0671,0.0665,0.0637,0.0616,0.0614,0.0612,0.0611,0.0591,0.0592,0,0,0,0,0,0,0.0729,0.0728,0.0809,0.0808,0.0746,0.0747,0.075,0.078,0.0728,0.0719,0.0758,0.0754,0.0677,0.0668,0.066,0.0696,0.0613,0.0611,0.0609,0.059,0.0591,0.0592,0,0,0,0,0,0,0.0727,0.0738,0.0809,0.0765,0.0771,0.0752,0.0786,0.0781,0.0786,0.0727,0.0715,0.0767,0.0675,0.0664,0.0669,0.0689,0.061,0.0607,0.0588,0.059,0.0592,0.0759,0,0,0,0,0,0,0.0725,0.0738,0.077,0.0767,0.0774,0.0838,0.0787,0.0782,0.0788,0.0783,0.0731,0.0718,0.0673,0.0674,0.0666,0.0684,0.0605,0.0587,0.0589,0.0591,0.0752,0.0766,0.0778,0,0,0,0,0,0.0721,0.0786,0.0773,0.0782,0.0818,0.084,0.0841,0.0817,0.0791,0.0811,0.0784,0.072,0.0679,0.0674,0.0664,0.0682,0.0586,0.0588,0.0591,0.0746,0.0763,0.0777,0,0,0,0,0,0,0.0776,0.0786,0.0772,0.0843,0.0841,0.083,0.0847,0.0831,0.0828,0.0812,0.0757,0.0745,0.0755,0.0697,0.0692,0.0678,0.0613,0.0614,0.0733,0.0749,0.0762,0.0798,0.0603,0,0,0,0,0,0.0799,0.0842,0.0835,0.0895,0.0887,0.0867,0.0874,0.0855,0.0846,0.0842,0.0815,0.0774,0.0761,0.0739,0.0718,0.072,0.0677,0.0714,0.0728,0.0739,0.076,0.072,0.0732,0.06,0.06,0.06,0,0,0.0842,0.0851,0.0878,0.0906,0.0895,0.0916,0.0866,0.0879,0.0906,0.083,0.0864,0.0832,0.0776,0.0788,0.0782,0.0738,0.0758,0.0743,0.0754,0.0768,0.0724,0.0737,0.0748,0.0602,0.0602,0.0602,0,0,0.0924,0.0944,0.0983,0.0987,0.0974,0.0964,0.0971,0.096,0.0959,0.0989,0.0941,0.0939,0.0906,0.0885,0.0864,0.0934,0.0843,0.0899,0.0982,0.0944,0.0955,0.0964,0.095,0.0956,0.0889,0.0889,0.0889,0,0.0968,0.1021,0.1001,0.1028,0.1041,0.099,0.1025,0.103,0.1033,0.1048,0.1012,0.1008,0.096,0.0983,0.1003,0.0968,0.093,0.0934,0.0964,0.0972,0.0978,0.0961,0.0966,0.0897,0.0896,0.0895,0.0895,0,0.1052,0.1098,0.1121,0.1138,0.1155,0.1179,0.1166,0.1189,0.1175,0.1175,0.1205,0.1162,0.1156,0.113,0.1091,0.1112,0.1069,0.1003,0.0933,0.1002,0.0979,0.0981,0.0909,0.0906,0.0904,0.0902,0,0,0.1142,0.1172,0.118,0.1198,0.1209,0.1228,0.1283,0.1314,0.1363,0.1345,0.141,0.1382,0.1351,0.1327,0.1268,0.1228,0.125,0.1138,0.1132,0.1142,0.118,0.1176,0.1177,0.1179,0.1179,0.118,0.1155,0,0.1204,0.1265,0.1277,0.1352,0.1373,0.137,0.1434,0.1459,0.1477,0.153,0.1479,0.151,0.1424,0.1427,0.1383,0.1292,0.1259,0.1264,0.1096,0.1092,0.1094,0.1181,0.1138,0.1114,0.1156,0.1156,0.1157,0,0.1266,0.1299,0.1367,0.144,0.1451,0.1502,0.1583,0.1635,0.1689,0.1707,0.1723,0.1689,0.1674,0.157,0.1462,0.1464,0.1346,0.1256,0.125,0.1192,0.1092,0.1043,0.1115,0.0774,0.1159,0.1159,0.1159,0,0.1289,0.1368,0.1419,0.1441,0.1513,0.1565,0.1612,0.1685,0.175,0.1819,0.1875,0.1841,0.1839,0.1696,0.1549,0.1491,0.142,0.1304,0.1195,0.1193,0.1099,0.1088,0.0836,0.1219,0.1219,0.1219,0.1219,0,0.1337,0.1384,0.1434,0.1464,0.1559,0.1597,0.1715,0.1773,0.1871,0.1965,0.196,0.2029,0.1864,0.1811,0.1625,0.1463,0.148,0.1248,0.1196,0.1158,0.1153,0.0802,0.0702,0.1218,0.1219,0.1219,0.1219,0,0.1344,0.1375,0.1449,0.1534,0.1568,0.1633,0.1769,0.1862,0.1952,0.2083,0.2111,0.2169,0.2118,0.197,0.177,0.1582,0.1265,0.1332,0.1327,0.1275,0.0817,0.0734,0.0571,0.0491,0.1185,0.1185,0.1185,0,0.134,0.1373,0.1482,0.1538,0.158,0.1681,0.1768,0.1883,0.1989,0.2167,0.2236,0.2272,0.2313,0.2089,0.1798,0.1532,0.1285,0.1274,0.1144,0.0821,0.0687,0.0631,0.057,0.1085,0.1084,0.1083,0.1082,0,0.1345,0.1387,0.1453,0.1564,0.1659,0.1776,0.1905,0.1997,0.2147,0.2276,0.2433,0.2487,0.2343,0.2097,0.1783,0.1565,0.1087,0.1248,0.0893,0.06,0.0543,0.0431,0.1083,0.1076,0.1077,0.1077,0.1077,0.1078,0.1353,0.1403,0.1496,0.1611,0.1724,0.1867,0.1958,0.2109,0.2283,0.2486,0.2544,0.265,0.2269,0.1859,0.1558,0.0908,0.1024,0.0638,0.0572,0.0547,0.0447,0.112,0.1063,0.1063,0.1064,0.1064,0.1065,0,0.1352,0.143,0.1535,0.1685,0.1805,0.1868,0.2052,0.2154,0.2343,0.2534,0.2677,0.2503,0.2015,0.1496,0.0686,0.0249,0.0124,0.0018,-0.0146,-0.0169,0.0368,0.033,0.0137,0.0137,0.0137,0.0138,0.0138,0.0139,0.1367,0.1453,0.1522,0.1722,0.1828,0.1978,0.2076,0.2241,0.2389,0.2558,0.2597,0.2645,0.22,0.0716,-0.0315,-0.05,-0.0801,-0.0761,-0.0889,-0.0658,-0.061,-0.0564,-0.0636,-0.1028,-0.1029,-0.1438,-0.1443,-0.1446]}],[{"header":{"parameterUnit":"m.s-1","parameterCategory":2,"la1":30.2991,"la2":30.254,"lo1":-89.0895,"lo2":-89.0444,"dy":0.0017,"dx":0.0017,"nx":28,"ny":28,"refTime":"2023-08-14T09:00:00:Z","depth":"2","parameterNumber":2,"parameterNumberName":"U-component_of_CURRENTS"},"data":[0,0,0,0,0,0,0,0,0,0,0,0,0,0,0,0,0,0,0,0,0,0,0,0,0,0,0,0,0,0,0,0,0,0,0,0,0,0,0,0,0,0,0,0,0,0,0,0,0,0,0,0,0,0,0,0,0,0,0.2301,0.2302,0,0.2283,0.2282,0.2281,0.2315,0.2318,0.232,0.2323,0.229,0.2287,0.2284,0,0,0,0,0,0,0,0,0,0,0,0,0,0.2218,0.2219,0.23,0.2302,0.2303,0.2284,0.2282,0.228,0.2315,0.2318,0.2321,0.2324,0.2292,0.2288,0.2284,0,0,0,0,0,0,0,0,0,0,0,0,0,0.2218,0.2219,0.23,0.2329,0.2333,0.2284,0.2282,0.228,0.2314,0.2318,0.2322,0.2325,0.2293,0.2288,0.2283,0.2177,0,0,0.2269,0.2266,0,0,0,0,0,0,0,0,0.2218,0.2219,0.2324,0.2327,0.2331,0.2319,0.2242,0.225,0.2313,0.2305,0.2323,0.2327,0.2306,0.23,0.2267,0.2176,0.2174,0.2268,0.2265,0.2263,0.2262,0,0,0,0,0,0,0,0.2218,0.222,0.2278,0.2325,0.233,0.2294,0.2298,0.2242,0.2272,0.2306,0.2312,0.2333,0.2306,0.2271,0.2267,0.2174,0.2268,0.2264,0.2261,0.2259,0.26,0.2611,0,0,0,0,0,0,0.2255,0.222,0.2279,0.2279,0.23,0.2294,0.2298,0.2306,0.2273,0.2276,0.233,0.2336,0.2278,0.2272,0.2266,0.2454,0.2263,0.2259,0.2256,0.2588,0.2602,0.2615,0,0,0,0,0,0,0.2253,0.2259,0.228,0.2262,0.2265,0.2295,0.2302,0.2304,0.2384,0.2295,0.2295,0.2424,0.228,0.2273,0.2333,0.2442,0.2256,0.2252,0.2574,0.2592,0.2609,0.2629,0,0,0,0,0,0,0.225,0.2258,0.2278,0.2264,0.2268,0.2349,0.23,0.2302,0.2392,0.2401,0.2372,0.2366,0.2283,0.2341,0.2328,0.2432,0.2248,0.2559,0.2582,0.2603,0.2613,0.2645,0.2672,0,0,0,0,0,0.2246,0.2241,0.2278,0.2287,0.2293,0.2355,0.2354,0.2374,0.2395,0.2454,0.2446,0.2373,0.2482,0.2341,0.2324,0.2429,0.2548,0.2576,0.2602,0.2599,0.2639,0.2672,0,0,0,0,0,0,0.2191,0.2246,0.2285,0.2294,0.2381,0.237,0.2396,0.2441,0.2473,0.2492,0.2418,0.2412,0.2498,0.2527,0.2376,0.264,0.2547,0.2571,0.2553,0.2588,0.2618,0.2542,0.2244,0,0,0,0,0,0.2199,0.2195,0.2302,0.2294,0.237,0.2413,0.2444,0.2491,0.2515,0.2537,0.2507,0.2552,0.2579,0.2634,0.262,0.2725,0.2662,0.2846,0.2876,0.2898,0.2857,0.2852,0.2868,0.2704,0.2703,0.2703,0,0,0.2185,0.2186,0.2204,0.2284,0.2333,0.2432,0.244,0.2534,0.2586,0.2521,0.2563,0.2582,0.2623,0.2712,0.2776,0.2762,0.294,0.2933,0.2948,0.2893,0.288,0.2893,0.2904,0.2722,0.2719,0.2716,0,0,0.2151,0.2176,0.2226,0.2298,0.2423,0.2463,0.2542,0.2629,0.2663,0.2735,0.2713,0.283,0.2862,0.2913,0.2947,0.3176,0.304,0.3259,0.3365,0.3363,0.3368,0.3373,0.3343,0.3345,0.3336,0.3336,0.3336,0,0.216,0.2181,0.2254,0.2325,0.2373,0.2512,0.262,0.2663,0.274,0.2767,0.2791,0.2923,0.2951,0.3084,0.3177,0.3218,0.3168,0.317,0.3373,0.3377,0.338,0.3349,0.3349,0.334,0.334,0.3339,0.3339,0,0.2192,0.2227,0.2254,0.238,0.247,0.2551,0.2689,0.2762,0.2837,0.2886,0.3026,0.3088,0.3182,0.329,0.3266,0.3398,0.3334,0.3325,0.3206,0.3392,0.3356,0.3355,0.3346,0.3345,0.3343,0.3342,0,0,0.2134,0.2273,0.2256,0.234,0.2497,0.2575,0.2676,0.2814,0.2857,0.3017,0.3063,0.3254,0.3315,0.3372,0.3442,0.3507,0.351,0.3437,0.3435,0.3274,0.3452,0.3249,0.3227,0.348,0.3481,0.3481,0.3416,0,0.2148,0.2257,0.2299,0.2416,0.2553,0.2641,0.269,0.2823,0.2912,0.2969,0.3164,0.3265,0.3349,0.3432,0.349,0.3484,0.3507,0.3525,0.3413,0.341,0.3092,0.322,0.3077,0.2991,0.3415,0.3415,0.3414,0,0.2195,0.2232,0.2368,0.2465,0.2524,0.2596,0.2699,0.2771,0.2895,0.2957,0.3132,0.3229,0.3426,0.3431,0.3529,0.3517,0.3463,0.347,0.3467,0.3242,0.3204,0.289,0.2972,0.3412,0.3412,0.3412,0.3412,0,0.2166,0.2276,0.2359,0.2398,0.2548,0.2586,0.2668,0.2794,0.284,0.2998,0.3047,0.3253,0.3343,0.3395,0.349,0.3473,0.3493,0.3479,0.3249,0.3234,0.3073,0.3042,0.3441,0.3441,0.3441,0.3441,0.3441,0,0.2158,0.2212,0.2356,0.2385,0.245,0.2592,0.2651,0.2727,0.2829,0.2887,0.3068,0.3126,0.3313,0.3381,0.3436,0.336,0.3473,0.323,0.3196,0.3094,0.3066,0.3403,0.34,0.3439,0.3439,0.344,0.344,0,0.2128,0.2223,0.2325,0.243,0.2467,0.2537,0.2651,0.2659,0.2796,0.2858,0.294,0.3032,0.3075,0.3237,0.3279,0.325,0.3264,0.3183,0.3042,0.2988,0.2997,0.2999,0.2877,0.2869,0.2862,0.2857,0.2852,0,0.2113,0.2181,0.2307,0.232,0.236,0.2467,0.2481,0.2646,0.2668,0.2804,0.2792,0.2859,0.2828,0.2834,0.2834,0.2855,0.3013,0.2701,0.2633,0.2956,0.2936,0.2949,0.2959,0.2474,0.2466,0.246,0.2455,0,0.2033,0.2102,0.2125,0.2152,0.2197,0.227,0.2343,0.2369,0.2529,0.257,0.2588,0.2597,0.2515,0.2421,0.24,0.24,0.2708,0.2558,0.2969,0.261,0.2561,0.2547,0.2574,0.2401,0.2407,0.2411,0.2414,0.2416,0.1881,0.1904,0.1913,0.1966,0.1995,0.2038,0.2107,0.214,0.218,0.2236,0.2274,0.224,0.221,0.2009,0.2008,0.2046,0.2126,0.2157,0.2183,0.2214,0.2149,0.2088,0.1828,0.183,0.1832,0.1833,0.1835,0,0.1736,0.1768,0.1708,0.1756,0.1747,0.1894,0.1956,0.1982,0.2012,0.2013,0.2009,0.1765,0.1656,0.1736,0.1679,0.1626,0.1687,0.1619,0.1764,0.1814,0.186,0.1787,0.1365,0.1364,0.1363,0.1362,0,0,0.1619,0.1569,0.1592,0.1531,0.161,0.1694,0.1801,0.1798,0.1819,0.1639,0.164,0.1596,0.1699,0.1521,0.1461,0.1472,0.1653,0.1415,0.1787,0.2012,0.2058,0.2147,0.2084,0,0,0,0,0]},{"header":{"parameterUnit":"m.s-1","parameterCategory":2,"la1":30.2991,"la2":30.254,"lo1":-89.0895,"lo2":-89.0444,"dy":0.0017,"dx":0.0017,"nx":28,"ny":28,"refTime":"2023-08-14T09:00:00:Z","depth":"2","parameterNumber":3,"parameterNumberName":"V-component_of_CURRENTS"},"data":[0,0,0,0,0,0,0,0,0,0,0,0,0,0,0,0,0,0,0,0,0,0,0,0,0,0,0,0,0,0,0,0,0,0,0,0,0,0,0,0,0,0,0,0,0,0,0,0,0,0,0,0,0,0,0,0,0,0,-0.0161,-0.016,0,-0.0242,-0.0244,-0.0246,-0.0344,-0.0344,-0.0344,-0.0344,-0.0419,-0.0421,-0.0423,0,0,0,0,0,0,0,0,0,0,0,0,0,-0.0175,-0.0175,-0.0161,-0.016,-0.016,-0.0241,-0.0244,-0.0247,-0.0344,-0.0344,-0.0344,-0.0344,-0.0419,-0.0421,-0.0423,0,0,0,0,0,0,0,0,0,0,0,0,0,-0.0219,-0.0175,-0.0161,-0.0206,-0.021,-0.0241,-0.0244,-0.0247,-0.0344,-0.0344,-0.0344,-0.0344,-0.0418,-0.0421,-0.0424,-0.0441,0,0,-0.0433,-0.0434,0,0,0,0,0,0,0,0,-0.0216,-0.0221,-0.02,-0.0203,-0.0207,-0.0268,-0.0276,-0.0306,-0.0344,-0.031,-0.0344,-0.0344,-0.0357,-0.0365,-0.0404,-0.0445,-0.0448,-0.0433,-0.0435,-0.0436,-0.0437,0,0,0,0,0,0,0,-0.0213,-0.0218,-0.021,-0.0199,-0.0203,-0.025,-0.0257,-0.0284,-0.0345,-0.0313,-0.0317,-0.0299,-0.0362,-0.0401,-0.0406,-0.0449,-0.0433,-0.0435,-0.0437,-0.0438,-0.0262,-0.0256,0,0,0,0,0,0,-0.0166,-0.0214,-0.0207,-0.021,-0.0193,-0.0248,-0.0257,-0.0262,-0.0345,-0.0353,-0.0299,-0.0303,-0.0396,-0.0403,-0.0409,-0.0344,-0.0436,-0.0439,-0.044,-0.0268,-0.026,-0.0253,0,0,0,0,0,0,-0.0166,-0.0165,-0.0203,-0.02,-0.0206,-0.0245,-0.0252,-0.0263,-0.025,-0.0332,-0.0343,-0.0266,-0.0396,-0.0405,-0.0437,-0.0351,-0.044,-0.0443,-0.0276,-0.0266,-0.0257,-0.0271,0,0,0,0,0,0,-0.0167,-0.0166,-0.0146,-0.0197,-0.0204,-0.017,-0.025,-0.0264,-0.0235,-0.024,-0.0307,-0.0318,-0.0397,-0.0432,-0.044,-0.0356,-0.0445,-0.0284,-0.0271,-0.026,-0.0279,-0.0263,-0.025,0,0,0,0,0,-0.0168,-0.0135,-0.0146,-0.0143,-0.0179,-0.0165,-0.0173,-0.0214,-0.0232,-0.0208,-0.0295,-0.0313,-0.0354,-0.0435,-0.0444,-0.0358,-0.029,-0.0275,-0.0261,-0.0285,-0.0266,-0.025,0,0,0,0,0,0,-0.0129,-0.0141,-0.0155,-0.0128,-0.0118,-0.0174,-0.0148,-0.0169,-0.0219,-0.0221,-0.0317,-0.0335,-0.0331,-0.0305,-0.039,-0.0245,-0.0287,-0.0274,-0.0301,-0.0283,-0.0269,-0.0218,-0.0448,0,0,0,0,0,-0.0107,-0.0125,-0.0098,-0.0101,-0.0053,-0.0088,-0.0082,-0.0098,-0.0144,-0.0164,-0.0219,-0.0237,-0.0279,-0.0257,-0.0299,-0.0238,-0.0285,-0.0144,-0.0129,-0.0118,-0.0066,-0.0162,-0.0157,-0.0206,-0.0206,-0.0206,0,0,-0.0104,-0.0117,-0.0126,-0.0097,-0.0094,-0.003,-0.0087,-0.0044,-0.0044,-0.0161,-0.0178,-0.0233,-0.0264,-0.025,-0.0223,-0.0212,-0.0119,-0.01,-0.0093,-0.0045,-0.0147,-0.0145,-0.0142,-0.0196,-0.0198,-0.0199,0,0,-0.0083,-0.0085,-0.0047,-0.0019,0.0034,0.0026,0.0071,0.0076,0.0043,0.0034,-0.0068,-0.0051,-0.0081,-0.01,-0.0111,0.0005,-0.0089,0.0041,0.0185,0.0089,0.0088,0.0087,0.0025,0.0019,0.0102,0.0102,0.0102,0,-0.0046,-0.0031,-0.0032,0.0039,0.007,0.0078,0.0164,0.0132,0.0097,0.0082,0.0063,0.0033,0.0005,0.0014,0.0049,0.0033,-0.0055,0.0076,0.0091,0.009,0.0088,0.0025,0.0018,0.0103,0.0103,0.0103,0.0103,0,0.0027,0.0051,0.0088,0.0155,0.02,0.0259,0.0278,0.0276,0.0265,0.025,0.0257,0.0198,0.0212,0.023,0.0154,0.0187,0.011,0.0045,0.0002,0.0089,0.0022,0.0014,0.0105,0.0105,0.0104,0.0104,0,0,0.0056,0.0138,0.0133,0.0194,0.0268,0.0318,0.0326,0.0361,0.0361,0.0384,0.0371,0.0393,0.0406,0.0406,0.0351,0.0323,0.0229,0.0201,0.0195,0.0067,-0.0006,-0.0106,-0.0125,0.0087,0.0087,0.0086,-0.0059,0,0.0121,0.0254,0.0254,0.0359,0.047,0.045,0.0446,0.0463,0.0445,0.042,0.0439,0.0446,0.0457,0.0465,0.0429,0.0252,0.021,0.0276,0.0001,-0.0003,-0.017,-0.0135,-0.0069,-0.0199,-0.0067,-0.0069,-0.007,0,0.0215,0.0269,0.0418,0.0473,0.0521,0.0579,0.059,0.0591,0.0553,0.0535,0.0583,0.0546,0.058,0.0522,0.0385,0.0393,0.0226,0.0105,0.0093,0.0011,-0.0117,-0.0249,-0.0219,-0.0084,-0.0083,-0.0082,-0.0081,0,0.0261,0.0376,0.0485,0.0519,0.0604,0.0632,0.0672,0.0665,0.066,0.0647,0.0654,0.0648,0.0629,0.0486,0.0334,0.031,0.0084,0.0015,-0.0213,-0.0222,-0.0195,-0.0201,-0.0128,-0.0128,-0.0128,-0.0127,-0.0127,0,0.0329,0.0399,0.0533,0.0581,0.0681,0.074,0.0803,0.0791,0.0787,0.0826,0.0773,0.0773,0.0594,0.0454,0.0308,0.0057,0.0087,-0.0171,-0.0267,-0.0191,-0.0194,-0.0104,-0.0099,-0.0133,-0.0132,-0.0131,-0.013,0,0.0355,0.044,0.0567,0.0675,0.072,0.0812,0.0907,0.0917,0.0942,0.0959,0.0982,0.0838,0.0649,0.0451,0.0155,0.0017,-0.0195,-0.0317,-0.019,-0.0269,-0.0436,-0.0428,-0.0572,-0.0577,-0.0581,-0.0584,-0.0587,0,0.0388,0.0468,0.0623,0.0679,0.0738,0.0871,0.0909,0.0988,0.1022,0.1033,0.1029,0.0837,0.0685,0.0245,-0.0047,-0.0349,-0.0362,-0.0498,-0.0503,-0.0402,-0.0481,-0.0467,-0.0454,-0.0463,-0.0465,-0.0466,-0.0467,0,0.0413,0.0477,0.0547,0.0666,0.0766,0.088,0.0992,0.1051,0.1133,0.1152,0.1147,0.1036,0.0576,0.0224,-0.0253,-0.0416,-0.0427,-0.0543,-0.0488,-0.0373,-0.0316,-0.0389,-0.0376,-0.0479,-0.0478,-0.0477,-0.0476,-0.0476,0.0384,0.0451,0.0539,0.066,0.0761,0.0895,0.1019,0.1121,0.1224,0.1271,0.1143,0.0987,0.0552,-0.0102,-0.0366,-0.0595,-0.0642,-0.0695,-0.0684,-0.0673,-0.0646,-0.0601,-0.0809,-0.081,-0.0811,-0.0811,-0.0812,0,0.0385,0.0457,0.0515,0.0678,0.0786,0.0874,0.1053,0.1177,0.1349,0.1285,0.1232,0.0767,0.033,-0.0029,-0.0391,-0.0687,-0.0618,-0.0737,-0.0573,-0.0564,-0.0556,-0.0514,-0.0647,-0.0647,-0.0647,-0.0646,0,0,0.0371,0.0451,0.0505,0.0691,0.0809,0.1033,0.1178,0.1342,0.1399,0.1306,0.1195,0.0812,0.0394,0.0116,-0.027,-0.0396,-0.038,-0.0414,-0.0526,-0.0278,-0.0263,-0.0533,-0.0462,0,0,0,0,0]}],[{"header":{"parameterUnit":"m.s-1","parameterCategory":2,"la1":30.2991,"la2":30.254,"lo1":-89.0895,"lo2":-89.0444,"dy":0.0017,"dx":0.0017,"nx":28,"ny":28,"refTime":"2023-08-14T09:00:00:Z","depth":"4","parameterNumber":2,"parameterNumberName":"U-component_of_CURRENTS"},"data":[0,0,0,0,0,0,0,0,0,0,0,0,0,0,0,0,0,0,0,0,0,0,0,0,0,0,0,0,0,0,0,0,0,0,0,0,0,0,0,0,0,0,0,0,0,0,0,0,0,0,0,0,0,0,0,0,0,0,0.0431,0.0432,0,0.0474,0.0474,0.0475,0.0527,0.0527,0.0528,0.0529,0.0539,0.0538,0.0538,0,0,0,0,0,0,0,0,0,0,0,0,0,0.0398,0.0399,0.0431,0.0432,0.0432,0.0474,0.0474,0.0475,0.0527,0.0527,0.0528,0.0529,0.0539,0.0538,0.0538,0,0,0,0,0,0,0,0,0,0,0,0,0,0.0426,0.0399,0.0431,0.0461,0.0464,0.0474,0.0475,0.0475,0.0527,0.0527,0.0528,0.0529,0.0539,0.0538,0.0538,0.0515,0,0,0.0536,0.0536,0,0,0,0,0,0,0,0,0.0424,0.0427,0.0457,0.0459,0.0463,0.0494,0.0466,0.0487,0.0526,0.0505,0.0529,0.053,0.0519,0.052,0.0529,0.0516,0.0516,0.0536,0.0536,0.0536,0.0536,0,0,0,0,0,0,0,0.0422,0.0425,0.045,0.0457,0.0461,0.0474,0.0479,0.0471,0.0507,0.0507,0.051,0.0512,0.0521,0.0529,0.0529,0.0517,0.0536,0.0536,0.0536,0.0535,0.0529,0.0529,0,0,0,0,0,0,0.0412,0.0424,0.0449,0.0451,0.0443,0.0474,0.0479,0.0485,0.0508,0.0512,0.0511,0.0514,0.053,0.053,0.053,0.056,0.0536,0.0535,0.0535,0.0529,0.0529,0.0529,0,0,0,0,0,0,0.0411,0.0414,0.0447,0.0437,0.0442,0.0473,0.0479,0.0485,0.0516,0.0511,0.0515,0.0537,0.0531,0.0531,0.0541,0.0558,0.0535,0.0535,0.0529,0.0529,0.0529,0.0583,0,0,0,0,0,0,0.041,0.0413,0.0419,0.0436,0.0442,0.0465,0.0478,0.0485,0.0513,0.0518,0.0534,0.0535,0.0531,0.0542,0.054,0.0557,0.0534,0.0529,0.0529,0.0529,0.0581,0.0585,0.0588,0,0,0,0,0,0.0409,0.0411,0.0419,0.0422,0.0447,0.0466,0.0471,0.0497,0.0513,0.0528,0.054,0.0536,0.0542,0.0541,0.054,0.0557,0.0528,0.0529,0.0529,0.0579,0.0584,0.0588,0,0,0,0,0,0,0.0396,0.0417,0.0426,0.0434,0.0454,0.0474,0.0489,0.0506,0.0529,0.0535,0.0538,0.054,0.0551,0.0542,0.0542,0.0553,0.0534,0.0534,0.0572,0.0577,0.058,0.0575,0.0534,0,0,0,0,0,0.0394,0.0407,0.0425,0.0434,0.0446,0.0471,0.0485,0.0501,0.0518,0.0531,0.0541,0.0545,0.0546,0.0555,0.0547,0.0557,0.0547,0.0564,0.0568,0.0571,0.0565,0.0564,0.0567,0.053,0.053,0.053,0,0,0.0388,0.0404,0.0409,0.0433,0.0453,0.0473,0.0484,0.0507,0.0526,0.0524,0.0557,0.0555,0.0549,0.0561,0.0565,0.0561,0.058,0.0572,0.0575,0.0566,0.0564,0.0568,0.0571,0.053,0.053,0.053,0,0,0.0387,0.0403,0.0416,0.0438,0.0466,0.048,0.0491,0.0519,0.054,0.0561,0.0563,0.0575,0.0582,0.0584,0.0585,0.0601,0.0594,0.0601,0.0626,0.0627,0.063,0.0632,0.0643,0.0646,0.0611,0.0612,0.0612,0,0.0382,0.0403,0.0422,0.0447,0.0466,0.0487,0.0509,0.0528,0.0556,0.0571,0.0576,0.0592,0.0592,0.0606,0.0616,0.0611,0.0612,0.0616,0.0633,0.0635,0.0637,0.0646,0.0649,0.0614,0.0614,0.0614,0.0613,0,0.0393,0.0417,0.0429,0.0468,0.0489,0.051,0.0537,0.0559,0.0583,0.0602,0.0625,0.0623,0.0639,0.0639,0.0636,0.0651,0.0648,0.0634,0.0626,0.0644,0.0653,0.0655,0.0618,0.0617,0.0616,0.0616,0,0,0.0364,0.0425,0.0432,0.0459,0.0504,0.0522,0.0553,0.0587,0.0616,0.0635,0.067,0.0673,0.0683,0.0682,0.068,0.0679,0.0703,0.0669,0.0667,0.0686,0.0715,0.073,0.0734,0.0697,0.0697,0.0697,0.0723,0,0.0371,0.0416,0.0446,0.049,0.0516,0.055,0.0582,0.0614,0.0644,0.0679,0.0684,0.0715,0.0699,0.0718,0.0713,0.0702,0.0707,0.0698,0.0686,0.0686,0.0704,0.0736,0.0698,0.0724,0.0725,0.0725,0.0725,0,0.0372,0.0406,0.0448,0.0512,0.0528,0.0556,0.0611,0.0646,0.0694,0.0721,0.0747,0.076,0.0776,0.0754,0.0749,0.0747,0.0736,0.0719,0.0719,0.0712,0.0705,0.0696,0.0728,0.0728,0.0728,0.0728,0.0727,0,0.034,0.0408,0.0442,0.0464,0.0534,0.0562,0.0604,0.0658,0.0695,0.0756,0.0785,0.0805,0.0827,0.0805,0.0799,0.0777,0.0787,0.0753,0.0752,0.0754,0.0707,0.0704,0.0741,0.0741,0.0741,0.0741,0.074,0,0.0331,0.0359,0.0434,0.0453,0.0501,0.056,0.0614,0.0658,0.0724,0.0766,0.0812,0.0834,0.0839,0.0852,0.0822,0.0812,0.0815,0.0762,0.0762,0.0732,0.073,0.071,0.0706,0.0741,0.0741,0.0741,0.0741,0,0.0284,0.0335,0.0377,0.0457,0.0486,0.0522,0.0619,0.0653,0.073,0.0783,0.0809,0.0871,0.0897,0.0903,0.0888,0.0856,0.0835,0.0829,0.0824,0.0823,0.079,0.0789,0.0815,0.0816,0.0817,0.0817,0.0818,0,0.0265,0.028,0.0365,0.0397,0.0435,0.0504,0.0546,0.064,0.068,0.0789,0.0802,0.0876,0.0905,0.0904,0.0909,0.0894,0.0872,0.0868,0.0794,0.0801,0.0798,0.0795,0.0793,0.0819,0.0819,0.0819,0.0819,0,0.0219,0.0248,0.0282,0.0352,0.0403,0.0459,0.0532,0.0561,0.0668,0.0731,0.0794,0.0835,0.0878,0.0891,0.092,0.0886,0.0872,0.0874,0.087,0.0801,0.0805,0.0801,0.0798,0.0822,0.0821,0.0821,0.0821,0,0.0178,0.019,0.0245,0.0305,0.0367,0.0416,0.0459,0.0526,0.0587,0.071,0.0724,0.0802,0.0864,0.0888,0.0893,0.0902,0.0861,0.0814,0.0813,0.0811,0.08,0.0805,0.0828,0,0,0,0,0,0.0139,0.0156,0.0202,0.0277,0.0338,0.0377,0.0453,0.0497,0.059,0.062,0.0683,0.0724,0.0783,0.082,0.0823,0.0873,0.0853,0.0873,0.0794,0.0834,0.0832,0.0821,0,0,0,0,0,0,0.0118,0.0146,0.0182,0.0246,0.0289,0.0353,0.0396,0.0453,0.0486,0.0579,0.061,0.0686,0.0741,0.0769,0.0808,0.082,0.076,0.0925,0.0924,0.0836,0.0834,0.0831,0.082,0,0,0,0,0]},{"header":{"parameterUnit":"m.s-1","parameterCategory":2,"la1":30.2991,"la2":30.254,"lo1":-89.0895,"lo2":-89.0444,"dy":0.0017,"dx":0.0017,"nx":28,"ny":28,"refTime":"2023-08-14T09:00:00:Z","depth":"4","parameterNumber":3,"parameterNumberName":"V-component_of_CURRENTS"},"data":[0,0,0,0,0,0,0,0,0,0,0,0,0,0,0,0,0,0,0,0,0,0,0,0,0,0,0,0,0,0,0,0,0,0,0,0,0,0,0,0,0,0,0,0,0,0,0,0,0,0,0,0,0,0,0,0,0,0,-0.0429,-0.0429,0,-0.0484,-0.0485,-0.0486,-0.0528,-0.0528,-0.0528,-0.0528,-0.0613,-0.0615,-0.0617,0,0,0,0,0,0,0,0,0,0,0,0,0,-0.0393,-0.0394,-0.0429,-0.0429,-0.0429,-0.0484,-0.0485,-0.0486,-0.0528,-0.0528,-0.0528,-0.0528,-0.0612,-0.0614,-0.0617,0,0,0,0,0,0,0,0,0,0,0,0,0,-0.0427,-0.0394,-0.0429,-0.0455,-0.0457,-0.0484,-0.0485,-0.0486,-0.0528,-0.0528,-0.0528,-0.0529,-0.0611,-0.0614,-0.0617,-0.0634,0,0,-0.0627,-0.0629,0,0,0,0,0,0,0,0,-0.0425,-0.0429,-0.045,-0.0453,-0.0456,-0.0496,-0.0503,-0.0536,-0.0528,-0.0505,-0.0528,-0.0529,-0.0574,-0.058,-0.0595,-0.0638,-0.0642,-0.0627,-0.0629,-0.0631,-0.0632,0,0,0,0,0,0,0,-0.0423,-0.0427,-0.0454,-0.0451,-0.0454,-0.0475,-0.048,-0.051,-0.0541,-0.0507,-0.0509,-0.051,-0.0576,-0.0591,-0.0597,-0.0643,-0.0627,-0.063,-0.0632,-0.0633,-0.0757,-0.0758,0,0,0,0,0,0,-0.0408,-0.0425,-0.0452,-0.0455,-0.0437,-0.0475,-0.0481,-0.0486,-0.054,-0.0547,-0.051,-0.0512,-0.0586,-0.0593,-0.06,-0.066,-0.0631,-0.0634,-0.0636,-0.0755,-0.0757,-0.0759,0,0,0,0,0,0,-0.0407,-0.041,-0.045,-0.0438,-0.0444,-0.0475,-0.0481,-0.0487,-0.0525,-0.0542,-0.055,-0.0544,-0.0586,-0.0596,-0.0643,-0.0662,-0.0635,-0.0638,-0.0754,-0.0756,-0.0758,-0.0757,0,0,0,0,0,0,-0.0406,-0.0409,-0.0424,-0.0437,-0.0444,-0.0477,-0.048,-0.0488,-0.0522,-0.0526,-0.0573,-0.058,-0.0587,-0.0638,-0.0646,-0.0666,-0.0641,-0.0752,-0.0755,-0.0757,-0.0756,-0.0759,-0.0762,0,0,0,0,0,-0.0404,-0.0415,-0.0424,-0.0428,-0.0458,-0.0478,-0.0485,-0.0508,-0.0524,-0.0544,-0.0575,-0.0579,-0.066,-0.0642,-0.0651,-0.0673,-0.0751,-0.0754,-0.0757,-0.0754,-0.0758,-0.0762,0,0,0,0,0,0,-0.041,-0.042,-0.0431,-0.0446,-0.0467,-0.0484,-0.0506,-0.0524,-0.0565,-0.0575,-0.0597,-0.0605,-0.0655,-0.0669,-0.0648,-0.0717,-0.0707,-0.0712,-0.0702,-0.0706,-0.0709,-0.069,-0.0643,0,0,0,0,0,-0.0415,-0.0425,-0.0441,-0.0456,-0.0469,-0.0495,-0.0513,-0.0527,-0.0555,-0.0575,-0.0603,-0.0638,-0.0671,-0.0692,-0.0722,-0.0761,-0.0761,-0.0783,-0.0786,-0.0788,-0.0781,-0.0787,-0.0789,-0.0768,-0.0768,-0.0768,0,0,-0.0421,-0.0427,-0.0435,-0.0458,-0.0479,-0.0491,-0.0508,-0.0536,-0.0549,-0.0577,-0.0618,-0.0653,-0.0686,-0.0726,-0.0749,-0.0741,-0.0799,-0.0792,-0.0794,-0.0785,-0.079,-0.0792,-0.0793,-0.0771,-0.077,-0.077,0,0,-0.0422,-0.0446,-0.0453,-0.0469,-0.0494,-0.0507,-0.052,-0.0551,-0.0575,-0.0615,-0.0637,-0.0679,-0.0736,-0.0752,-0.077,-0.0811,-0.0817,-0.0837,-0.0835,-0.0842,-0.0842,-0.0843,-0.0859,-0.0861,-0.0836,-0.0836,-0.0836,0,-0.0431,-0.0435,-0.046,-0.0468,-0.0477,-0.0515,-0.0522,-0.055,-0.0592,-0.061,-0.0629,-0.0712,-0.074,-0.0779,-0.0796,-0.0815,-0.0827,-0.0814,-0.0843,-0.0843,-0.0844,-0.086,-0.0862,-0.0836,-0.0836,-0.0836,-0.0836,0,-0.0428,-0.0439,-0.0447,-0.0462,-0.048,-0.0496,-0.0524,-0.0554,-0.0589,-0.0614,-0.0674,-0.0718,-0.0761,-0.0787,-0.0806,-0.0837,-0.0848,-0.0844,-0.0824,-0.0845,-0.0862,-0.0864,-0.0837,-0.0836,-0.0836,-0.0836,0,0,-0.0425,-0.044,-0.0444,-0.0445,-0.0477,-0.0487,-0.0514,-0.0545,-0.056,-0.0623,-0.0648,-0.0721,-0.0755,-0.0778,-0.0814,-0.0829,-0.0852,-0.0845,-0.0845,-0.0845,-0.0881,-0.0826,-0.0823,-0.0857,-0.0857,-0.0857,-0.0894,0,-0.0417,-0.0414,-0.0428,-0.0433,-0.0436,-0.047,-0.0486,-0.0521,-0.0561,-0.0595,-0.0659,-0.0702,-0.0749,-0.0775,-0.0802,-0.0839,-0.0857,-0.0843,-0.0873,-0.0874,-0.0809,-0.0823,-0.0857,-0.0896,-0.0896,-0.0897,-0.0897,0,-0.0408,-0.0404,-0.0401,-0.0406,-0.0413,-0.0424,-0.045,-0.0472,-0.0528,-0.0561,-0.062,-0.0669,-0.0727,-0.075,-0.0823,-0.0817,-0.085,-0.0875,-0.0877,-0.0822,-0.0822,-0.087,-0.0901,-0.09,-0.09,-0.09,-0.09,0,-0.038,-0.0384,-0.0377,-0.0382,-0.0397,-0.0406,-0.0425,-0.0468,-0.0483,-0.0542,-0.0557,-0.0639,-0.0671,-0.0734,-0.0803,-0.0816,-0.0864,-0.088,-0.0863,-0.0861,-0.0898,-0.0896,-0.0912,-0.0912,-0.0912,-0.0912,-0.0912,0,-0.0356,-0.0353,-0.0365,-0.036,-0.0355,-0.0383,-0.0391,-0.0417,-0.0454,-0.0462,-0.0543,-0.0557,-0.0666,-0.0713,-0.0785,-0.0827,-0.085,-0.0859,-0.086,-0.0901,-0.09,-0.09,-0.0898,-0.0913,-0.0913,-0.0912,-0.0912,0,-0.0326,-0.0336,-0.0325,-0.0336,-0.034,-0.0341,-0.0363,-0.0367,-0.0406,-0.0414,-0.043,-0.0498,-0.0557,-0.0654,-0.0738,-0.0781,-0.0837,-0.0842,-0.088,-0.0883,-0.0842,-0.084,-0.0836,-0.0835,-0.0833,-0.0832,-0.0831,0,-0.0309,-0.0301,-0.03,-0.0292,-0.0299,-0.0307,-0.0308,-0.0344,-0.0343,-0.0369,-0.0363,-0.0418,-0.0469,-0.0553,-0.0659,-0.0777,-0.0788,-0.0818,-0.0836,-0.0829,-0.0831,-0.0832,-0.0832,-0.0828,-0.0828,-0.0828,-0.0827,0,-0.0275,-0.0281,-0.0269,-0.0251,-0.0249,-0.0242,-0.0248,-0.0238,-0.0267,-0.0291,-0.0292,-0.0351,-0.0404,-0.0511,-0.0592,-0.0681,-0.0804,-0.0803,-0.0808,-0.0825,-0.082,-0.0823,-0.0825,-0.0822,-0.0823,-0.0823,-0.0824,0,-0.0254,-0.0239,-0.0229,-0.0213,-0.0204,-0.0191,-0.0195,-0.0191,-0.0198,-0.0222,-0.0215,-0.0297,-0.0352,-0.0459,-0.0538,-0.0614,-0.0643,-0.067,-0.0682,-0.0689,-0.0634,-0.0605,-0.0535,0,0,0,0,0,-0.0234,-0.0219,-0.0193,-0.0178,-0.0166,-0.0169,-0.0159,-0.0166,-0.0179,-0.0161,-0.0189,-0.0239,-0.0345,-0.0404,-0.0468,-0.0527,-0.0668,-0.0604,-0.0707,-0.0793,-0.0799,-0.0754,0,0,0,0,0,0,-0.0222,-0.0203,-0.0186,-0.0157,-0.0144,-0.0136,-0.0133,-0.0136,-0.0133,-0.0149,-0.0207,-0.0241,-0.0356,-0.0307,-0.0465,-0.0491,-0.056,-0.0664,-0.0665,-0.079,-0.0795,-0.08,-0.0756,0,0,0,0,0]}]]